GW4718 Weather Reports


Display with metric or nautical units.
time (UTC)temp
F
wind
direction
speed
MPH
gust
MPH
rain 1hr
in
rain 24hr
in
rain mn
in
humidity
%
barometer
mb
20260507161624 57 261 2.0 3.0 0.00 0.00 0.00 65 1013.8
20260507161121 58 186 4.0 7.0 0.00 0.00 0.00 61 1013.9
20260507160618 58 287 1.0 6.0 0.00 0.00 0.00 57 1013.8
20260507160114 58 200 1.0 4.0 0.00 0.00 0.00 62 1014.0
20260507155609 58 163 3.0 3.0 0.00 0.00 0.00 63 1014.0
20260507155107 56 286 1.0 1.0 0.00 0.00 0.00 60 1014.1
20260507154603 57 193 3.0 9.0 0.00 0.00 0.00 64 1014.3
20260507154100 57 214 0.0 2.0 0.00 0.00 0.00 61 1014.1
20260507153557 58 246 3.0 8.0 0.00 0.00 0.00 63 1014.4
20260507153053 56 255 1.0 3.0 0.00 0.00 0.00 62 1014.4
20260507152550 56 312 4.0 4.0 0.00 0.00 0.00 62 1014.4
20260507152046 56 315 4.0 4.0 0.00 0.00 0.00 61 1014.3
20260507151542 56 284 4.0 4.0 0.00 0.00 0.00 63 1014.4
20260507151039 55 120 0.0 4.0 0.00 0.00 0.00 62 1014.4
20260507150536 54 7 1.0 2.0 0.00 0.00 0.00 63 1014.5
20260507150033 54 40 1.0 2.0 0.00 0.00 0.00 64 1014.6
20260507145528 55 22 1.0 3.0 0.00 0.00 0.00 61 1014.4
20260507145026 54 58 1.0 3.0 0.00 0.00 0.00 65 1014.7
20260507144522 55 32 0.0 3.0 0.00 0.00 0.00 64 1014.6
20260507144020 54 51 1.0 2.0 0.00 0.00 0.00 66 1014.6
20260507143517 54 54 2.0 3.0 0.00 0.00 0.00 63 1014.7
20260507143014 55 81 2.0 3.0 0.00 0.00 0.00 59 1015.0
20260507142509 54 246 1.0 3.0 0.00 0.00 0.00 63 1014.8
20260507142007 53 255 2.0 2.0 0.00 0.00 0.00 61 1015.0
20260507141502 52 131 1.0 2.0 0.00 0.00 0.00 67 1015.2
20260507140959 52 102 2.0 3.0 0.00 0.00 0.00 66 1015.4
20260507140456 52 87 0.0 1.0 0.00 0.00 0.00 65 1015.4
20260507135953 52 4 2.0 6.0 0.00 0.00 0.00 67 1015.2
20260507135450 52 323 1.0 4.0 0.00 0.00 0.00 66 1015.4
20260507134947 51 23 1.0 2.0 0.00 0.00 0.00 66 1015.4
20260507134443 51 34 1.0 2.0 0.00 0.00 0.00 66 1015.4
20260507133935 51 129 0.0 0.0 0.00 0.00 0.00 65 1015.5
20260507133431 51 135 0.0 0.0 0.00 0.00 0.00 66 1015.7
20260507132929 51 188 0.0 2.0 0.00 0.00 0.00 69 1015.8
20260507132424 50 233 2.0 3.0 0.00 0.00 0.00 66 1015.6
20260507131921 50 208 1.0 2.0 0.00 0.00 0.00 67 1015.8
20260507131418 50 95 1.0 3.0 0.00 0.00 0.00 65 1015.7
20260507130915 50 56 2.0 4.0 0.00 0.00 0.00 66 1015.7
20260507130412 50 307 0.0 0.0 0.00 0.00 0.00 68 1015.9
20260507125911 50 170 0.0 3.0 0.00 0.00 0.00 67 1015.8
20260507125409 49 71 11.0 13.0 0.00 0.00 0.00 67 1015.9
20260507124906 49 214 3.0 4.0 0.00 0.00 0.00 71 1015.9
20260507124401 50 184 2.0 3.0 0.00 0.00 0.00 74 1015.8
20260507123900 49 127 0.0 2.0 0.00 0.00 0.00 75 1015.7
20260507123357 49 241 1.0 3.0 0.00 0.00 0.00 77 1015.9
20260507122853 50 254 2.0 6.0 0.00 0.00 0.00 76 1015.8
20260507122349 50 82 0.0 2.0 0.00 0.00 0.00 77 1015.5
20260507121845 50 172 3.0 3.0 0.00 0.00 0.00 80 1016.0
20260507121340 50 279 3.0 3.0 0.00 0.00 0.00 79 1015.4
20260507120838 50 195 0.0 2.0 0.00 0.00 0.00 82 1015.7
20260507120334 50 308 2.0 4.0 0.00 0.00 0.00 80 1015.6
20260507115830 50 279 1.0 2.0 0.00 0.00 0.00 80 1015.6
20260507115326 50 231 2.0 3.0 0.00 0.00 0.00 81 1015.5
20260507114822 50 349 3.0 4.0 0.00 0.00 0.00 80 1015.3
20260507114319 50 171 1.0 3.0 0.00 0.00 0.00 80 1015.3
20260507113817 50 35 1.0 1.0 0.00 0.00 0.00 86 1015.2
20260507113313 50 325 0.0 0.0 0.00 0.00 0.00 87 1015.3
20260507112811 50 305 0.0 0.0 0.00 0.00 0.00 87 1015.0
20260507112308 50 249 0.0 0.0 0.00 0.00 0.00 86 1015.2
20260507111806 50 352 0.0 0.0 0.00 0.00 0.00 87 1014.8
20260507111302 50 42 0.0 2.0 0.00 0.00 0.00 86 1015.0
20260507110759 50 10 0.0 1.0 0.00 0.00 0.00 86 1014.8
20260507110255 50 340 1.0 2.0 0.00 0.00 0.00 87 1014.8
20260507105752 50 3 0.0 0.0 0.00 0.00 0.00 86 1014.7
20260507105248 50 0 1.0 1.0 0.00 0.00 0.00 85 1014.6
20260507104746 50 20 0.0 1.0 0.00 0.00 0.00 86 1014.6
20260507104242 50 11 1.0 1.0 0.00 0.00 0.00 85 1014.4
20260507103737 50 0 1.0 2.0 0.00 0.00 0.00 85 1014.6
20260507103234 50 5 0.0 1.0 0.00 0.00 0.00 85 1014.5
20260507102730 50 307 0.0 1.0 0.00 0.00 0.00 85 1014.5
20260507102227 50 342 0.0 0.0 0.00 0.00 0.00 85 1014.6
20260507101723 50 5 0.0 0.0 0.00 0.00 0.00 84 1014.6
20260507101218 50 1 0.0 0.0 0.00 0.00 0.00 85 1014.3
20260507100716 50 42 2.0 3.0 0.00 0.00 0.00 84 1014.5
20260507100214 50 19 0.0 1.0 0.00 0.00 0.00 83 1014.4
20260507095712 50 7 0.0 2.0 0.00 0.00 0.00 84 1014.3
20260507095208 50 20 0.0 0.0 0.00 0.00 0.00 86 1014.3
20260507094705 50 101 0.0 0.0 0.00 0.00 0.00 85 1014.3
20260507094202 50 105 0.0 0.0 0.00 0.00 0.00 87 1014.2
20260507093659 50 102 0.0 0.0 0.00 0.00 0.00 86 1014.2
20260507093158 51 102 0.0 0.0 0.00 0.00 0.00 86 1014.3
20260507092654 50 111 0.0 0.0 0.00 0.00 0.00 86 1014.4
20260507092151 51 91 0.0 1.0 0.00 0.00 0.00 86 1014.3
20260507091647 51 167 0.0 0.0 0.00 0.00 0.00 86 1014.1
20260507091144 51 212 0.0 0.0 0.00 0.00 0.00 85 1014.5
20260507090639 51 262 0.0 0.0 0.00 0.00 0.00 83 1014.1
20260507090137 51 252 0.0 2.0 0.00 0.00 0.00 82 1014.1
20260507085633 51 235 1.0 2.0 0.00 0.00 0.00 82 1014.3
20260507085130 51 236 1.0 3.0 0.00 0.00 0.00 83 1014.3
20260507084627 51 255 0.0 0.0 0.00 0.00 0.00 83 1014.2
20260507084124 51 235 3.0 4.0 0.00 0.00 0.00 83 1014.2
20260507083620 51 292 0.0 2.0 0.00 0.00 0.00 83 1014.0
20260507083117 51 189 0.0 0.0 0.00 0.00 0.00 86 1014.1
20260507082613 51 323 1.0 2.0 0.00 0.00 0.00 83 1014.2
20260507082110 51 197 0.0 2.0 0.00 0.00 0.00 85 1014.3
20260507081606 51 236 0.0 0.0 0.00 0.00 0.00 85 1014.2
20260507081103 51 285 0.0 0.0 0.00 0.00 0.00 85 1014.2
20260507080559 51 28 0.0 0.0 0.00 0.00 0.00 84 1014.3
20260507080056 51 29 0.0 0.0 0.00 0.00 0.00 83 1014.4
20260507075551 51 21 0.0 1.0 0.00 0.00 0.00 83 1014.3
20260507075047 51 40 1.0 1.0 0.00 0.00 0.00 84 1014.3
20260507074544 51 25 0.0 0.0 0.00 0.00 0.00 84 1014.4
20260507074043 51 41 0.0 1.0 0.00 0.00 0.00 84 1014.6
20260507073538 51 62 1.0 2.0 0.00 0.00 0.00 85 1014.6
20260507073035 51 316 0.0 2.0 0.00 0.00 0.00 83 1014.5
20260507072533 51 284 0.0 0.0 0.00 0.00 0.00 83 1014.2
20260507072030 51 44 0.0 0.0 0.00 0.00 0.00 83 1014.3
20260507071527 51 21 0.0 0.0 0.00 0.00 0.00 82 1014.3
20260507071024 52 12 0.0 0.0 0.00 0.00 0.00 82 1014.1
20260507070521 52 340 0.0 0.0 0.00 0.00 0.00 82 1014.1
20260507070018 52 305 1.0 3.0 0.00 0.00 0.00 81 1014.2
20260507065514 52 3 2.0 2.0 0.00 0.00 0.00 81 1014.2
20260507065011 52 17 0.0 2.0 0.00 0.00 0.00 81 1014.3
20260507064509 52 15 2.0 2.0 0.00 0.00 0.00 81 1014.3
20260507064007 52 25 1.0 2.0 0.00 0.00 0.00 81 1014.2
20260507063504 52 21 1.0 3.0 0.00 0.00 0.00 81 1014.3
20260507063001 52 32 1.0 3.0 0.00 0.00 0.00 81 1014.3
20260507062458 53 31 1.0 2.0 0.00 0.00 0.00 81 1014.1
20260507061955 53 109 0.0 2.0 0.00 0.00 0.00 81 1014.3
20260507061453 53 263 0.0 2.0 0.00 0.00 0.00 81 1014.3
20260507060951 53 185 2.0 3.0 0.00 0.00 0.00 81 1014.5
20260507060448 53 135 0.0 1.0 0.00 0.00 0.00 81 1014.4
20260507055944 54 167 1.0 3.0 0.00 0.00 0.00 81 1014.4
20260507055440 55 273 2.0 3.0 0.00 0.00 0.00 80 1014.5
20260507054937 55 228 2.0 4.0 0.00 0.00 0.00 81 1014.6
20260507054433 55 180 1.0 3.0 0.00 0.00 0.00 80 1014.3
20260507053930 55 173 2.0 3.0 0.00 0.00 0.00 80 1014.5
20260507053422 55 199 4.0 7.0 0.00 0.00 0.00 81 1014.2
20260507052921 55 182 1.0 6.0 0.00 0.00 0.00 81 1014.5
20260507052418 55 114 2.0 2.0 0.00 0.00 0.00 84 1014.4
20260507051915 55 43 1.0 2.0 0.00 0.00 0.00 84 1014.4
20260507051413 56 112 3.0 4.0 0.00 0.00 0.00 84 1014.2
20260507050909 55 124 0.0 0.0 0.00 0.00 0.00 85 1014.3
20260507050400 55 59 0.0 0.0 0.00 0.00 0.00 85 1014.2
20260507045857 56 157 0.0 0.0 0.00 0.00 0.00 85 1014.1
20260507045353 56 156 0.0 0.0 0.00 0.00 0.00 86 1014.1
20260507044851 56 165 0.0 0.0 0.00 0.00 0.00 84 1014.1
20260507044347 56 52 0.0 1.0 0.00 0.00 0.00 81 1014.1
20260507043843 56 188 1.0 2.0 0.00 0.00 0.00 81 1013.9
20260507043339 56 181 3.0 3.0 0.00 0.00 0.00 82 1014.0
20260507042830 56 78 2.0 2.0 0.00 0.00 0.00 84 1013.9
20260507042326 56 346 0.0 3.0 0.00 0.00 0.00 83 1014.0
20260507041823 56 248 2.0 4.0 0.00 0.00 0.00 82 1014.2
20260507041319 56 204 2.0 3.0 0.00 0.00 0.00 84 1014.2
20260507040817 56 97 1.0 1.0 0.00 0.00 0.00 88 1013.8
20260507040313 56 254 0.0 1.0 0.00 0.00 0.00 88 1013.7
20260507035809 56 86 0.0 1.0 0.00 0.00 0.00 87 1013.3
20260507035306 57 105 1.0 1.0 0.00 0.00 0.00 86 1012.9
20260507034803 57 130 0.0 0.0 0.00 0.00 0.00 85 1013.5
20260507034259 57 207 0.0 0.0 0.00 0.00 0.00 84 1013.7
20260507033757 57 256 2.0 2.0 0.00 0.00 0.00 83 1014.0
20260507033255 58 276 2.0 2.0 0.00 0.00 0.00 82 1013.4
20260507032751 58 138 2.0 2.0 0.00 0.00 0.00 81 1013.3
20260507032247 57 90 1.0 2.0 0.00 0.00 0.00 83 1014.3
20260507031744 58 260 2.0 6.0 0.00 0.00 0.00 82 1014.5
20260507031241 58 265 3.0 3.0 0.00 0.00 0.00 82 1014.7
20260507030738 57 56 0.0 0.0 0.00 0.00 0.00 83 1014.5
20260507030235 58 201 0.0 2.0 0.00 0.00 0.00 82 1014.3
20260507025732 57 170 3.0 4.0 0.00 0.00 0.00 84 1014.2
20260507025229 57 178 0.0 1.0 0.00 0.00 0.00 86 1014.6
20260507024728 57 182 0.0 0.0 0.00 0.00 0.00 86 1014.3
20260507024224 57 157 0.0 0.0 0.00 0.00 0.00 85 1014.3
20260507023720 58 229 1.0 2.0 0.00 0.00 0.00 84 1014.2
20260507023217 58 249 1.0 4.0 0.00 0.00 0.00 81 1013.5
20260507022715 58 159 0.0 1.0 0.00 0.00 0.00 83 1013.3
20260507022210 58 204 2.0 7.0 0.00 0.00 0.00 81 1013.8
20260507021707 58 238 3.0 7.0 0.00 0.00 0.00 81 1013.8
20260507021202 58 207 1.0 2.0 0.00 0.00 0.00 83 1014.1
20260507020701 58 235 2.0 3.0 0.00 0.00 0.00 85 1014.1
20260507020156 57 228 1.0 2.0 0.00 0.00 0.00 88 1014.2
20260507015655 57 174 0.0 0.0 0.00 0.00 0.00 87 1014.0
20260507015152 56 121 0.0 1.0 0.00 0.00 0.00 89 1013.8
20260507014648 57 182 1.0 2.0 0.00 0.00 0.00 89 1013.6
20260507014144 57 248 3.0 3.0 0.00 0.00 0.00 89 1012.9
20260507013641 57 329 0.0 1.0 0.00 0.00 0.00 88 1012.5
20260507013138 57 105 0.0 0.0 0.00 0.00 0.00 88 1013.0
20260507012636 57 92 0.0 2.0 0.00 0.00 0.00 87 1013.5
20260507012131 57 74 0.0 0.0 0.00 0.00 0.00 88 1013.5
20260507011630 58 47 2.0 2.0 0.00 0.00 0.00 88 1012.9
20260507011125 58 247 1.0 2.0 0.00 0.00 0.00 88 1013.6
20260507010620 58 235 3.0 3.0 0.00 0.00 0.00 86 1013.3
20260507010116 58 244 1.0 7.0 0.00 0.00 0.00 82 1013.2
20260507005614 58 251 0.0 3.0 0.00 0.00 0.00 86 1013.0
20260507005110 58 114 2.0 3.0 0.00 0.00 0.00 85 1012.4
20260507004607 59 155 1.0 1.0 0.00 0.00 0.00 84 1012.7
20260507004104 60 219 2.0 3.0 0.00 0.00 0.00 82 1013.3
20260507003600 60 227 1.0 3.0 0.00 0.00 0.00 79 1012.6
20260507003055 60 220 2.0 3.0 0.00 0.00 0.00 80 1012.7
20260507002552 60 204 2.0 4.0 0.00 0.00 0.00 79 1013.5
20260507002048 60 200 2.0 4.0 0.00 0.00 0.00 79 1013.3
20260507001545 60 252 3.0 4.0 0.00 0.00 0.00 79 1013.0
20260507001043 60 9 0.0 2.0 0.00 0.00 0.00 79 1012.9
20260507000538 60 117 0.0 4.0 0.00 0.00 0.00 79 1013.4
20260507000034 60 113 4.0 6.0 0.00 0.00 0.00 78 1013.3
20260506235531 60 340 2.0 3.0 0.00 0.00 0.00 78 1013.0
20260506235027 60 40 2.0 7.0 0.00 0.00 0.00 78 1012.9
20260506234524 61 184 1.0 7.0 0.00 0.00 0.00 78 1013.0
20260506234016 61 127 6.0 8.0 0.00 0.00 0.00 78 1012.9
20260506233513 61 77 8.0 9.0 0.00 0.00 0.00 77 1012.7
20260506233010 61 106 1.0 3.0 0.00 0.00 0.00 78 1012.8
20260506232506 60 115 6.0 9.0 0.00 0.00 0.00 79 1012.9
20260506232001 61 213 2.0 10.0 0.00 0.00 0.00 79 1013.2
20260506231459 61 137 2.0 7.0 0.00 0.00 0.00 78 1013.4
20260506230957 61 227 1.0 7.0 0.00 0.00 0.00 78 1012.8
20260506230453 61 185 5.0 7.0 0.00 0.00 0.00 78 1012.8
20260506225949 61 210 2.0 6.0 0.00 0.00 0.00 78 1012.7
20260506225446 62 203 3.0 3.0 0.00 0.00 0.00 78 1012.8
20260506224937 62 123 4.0 8.0 0.00 0.00 0.00 77 1012.7
20260506224435 62 253 6.0 9.0 0.00 0.00 0.00 76 1012.4
20260506223931 62 208 4.0 7.0 0.00 0.00 0.00 78 1012.3
20260506223426 63 238 5.0 7.0 0.00 0.00 0.00 77 1012.1
20260506222924 62 167 8.0 16.0 0.00 0.00 0.00 77 1012.7
20260506222420 63 249 2.0 4.0 0.00 0.00 0.00 79 1012.6
20260506221917 62 219 3.0 10.0 0.00 0.00 0.00 81 1012.7
20260506221414 63 261 6.0 10.0 0.00 0.00 0.00 80 1012.4
20260506220912 63 265 4.0 11.0 0.00 0.00 0.00 78 1012.3
20260506220408 64 208 4.0 9.0 0.00 0.00 0.00 78 1012.1
20260506215904 64 246 4.0 9.0 0.00 0.00 0.00 79 1012.2
20260506215400 65 184 1.0 6.0 0.00 0.00 0.00 77 1012.2
20260506214850 65 190 4.0 6.0 0.00 0.00 0.00 77 1011.9
20260506214347 67 180 4.0 9.0 0.00 0.00 0.00 75 1011.9
20260506213846 67 232 3.0 8.0 0.00 0.00 0.00 75 1012.0
20260506213342 67 200 4.0 8.0 0.00 0.00 0.00 73 1011.6
20260506212839 68 171 6.0 8.0 0.00 0.00 0.00 72 1011.6
20260506212336 67 238 2.0 7.0 0.00 0.00 0.00 76 1011.5
20260506211831 68 218 3.0 10.0 0.00 0.00 0.00 75 1011.5
20260506211327 67 182 10.0 13.0 0.00 0.00 0.00 73 1011.2
20260506210824 67 230 2.0 6.0 0.00 0.00 0.00 75 1011.5
20260506210320 68 219 5.0 9.0 0.00 0.00 0.00 74 1011.4
20260506205818 68 242 3.0 8.0 0.00 0.00 0.00 73 1011.4
20260506205313 67 267 4.0 8.0 0.00 0.00 0.00 73 1011.1
20260506204804 67 265 3.0 8.0 0.00 0.00 0.00 75 1011.1
20260506204302 68 196 3.0 13.0 0.00 0.00 0.00 73 1011.2
20260506203759 69 174 6.0 10.0 0.00 0.00 0.00 73 1011.0
20260506203251 68 163 9.0 15.0 0.00 0.00 0.00 72 1010.9
20260506202748 68 159 4.0 7.0 0.00 0.00 0.00 72 1010.8
20260506202245 68 240 2.0 8.0 0.00 0.00 0.00 74 1011.2
20260506201742 69 254 2.0 8.0 0.00 0.00 0.00 73 1010.8
20260506201238 69 235 4.0 9.0 0.00 0.00 0.00 77 1011.1
20260506200736 69 244 6.0 13.0 0.00 0.00 0.00 75 1010.8
20260506200232 69 284 4.0 10.0 0.00 0.00 0.00 74 1011.0
20260506195728 67 133 6.0 10.0 0.00 0.00 0.00 75 1010.9
20260506195224 68 217 7.0 11.0 0.00 0.00 0.00 76 1011.0
20260506194721 69 213 6.0 13.0 0.00 0.00 0.00 72 1011.0
20260506194218 69 183 5.0 11.0 0.00 0.00 0.00 75 1011.0
20260506193716 69 204 5.0 9.0 0.00 0.00 0.00 74 1011.0
20260506193212 68 189 4.0 9.0 0.00 0.00 0.00 75 1010.9
20260506192709 68 197 5.0 10.0 0.00 0.00 0.00 77 1010.9
20260506192206 68 215 3.0 6.0 0.00 0.00 0.00 79 1010.7
20260506191703 67 228 5.0 8.0 0.00 0.00 0.00 82 1011.0
20260506191159 66 126 1.0 6.0 0.00 0.00 0.00 83 1010.9
20260506190656 67 207 4.0 6.0 0.00 0.00 0.00 84 1010.9
20260506190153 67 148 3.0 6.0 0.00 0.00 0.00 80 1010.9
20260506185651 67 232 2.0 7.0 0.00 0.00 0.00 81 1010.8
20260506185146 67 234 3.0 9.0 0.00 0.00 0.00 81 1010.7
20260506184644 67 263 3.0 4.0 0.00 0.00 0.00 80 1010.7
20260506184141 67 221 2.0 9.0 0.00 0.00 0.00 79 1011.0
20260506183638 68 197 3.0 9.0 0.00 0.00 0.00 78 1010.9
20260506183134 68 214 5.0 9.0 0.00 0.00 0.00 81 1011.0
20260506182632 67 175 2.0 8.0 0.00 0.00 0.00 82 1011.0
20260506182128 66 206 5.0 8.0 0.00 0.00 0.00 86 1011.0
20260506181626 65 146 7.0 9.0 0.00 0.00 0.00 82 1011.2
20260506181123 65 200 3.0 7.0 0.00 0.00 0.00 85 1011.2
20260506180620 65 201 4.0 6.0 0.00 0.00 0.00 87 1011.2
20260506180116 64 268 6.0 10.0 0.00 0.00 0.00 84 1011.4
20260506175613 65 288 4.0 7.0 0.00 0.00 0.00 86 1011.4
20260506175109 65 239 5.0 7.0 0.00 0.00 0.00 82 1011.2
20260506174608 66 266 4.0 8.0 0.00 0.00 0.00 80 1011.4
20260506174104 66 252 4.0 7.0 0.00 0.00 0.00 82 1011.4
20260506173602 66 104 4.0 8.0 0.00 0.00 0.00 80 1011.4
20260506173058 66 137 4.0 10.0 0.00 0.00 0.00 78 1011.2
20260506172556 65 178 9.0 13.0 0.00 0.00 0.00 79 1011.1
20260506172051 66 201 7.0 11.0 0.00 0.00 0.00 78 1011.1
20260506171549 66 217 4.0 8.0 0.00 0.00 0.00 80 1011.1
20260506171047 66 220 6.0 13.0 0.00 0.00 0.00 79 1011.1
20260506170543 66 223 6.0 9.0 0.00 0.00 0.00 78 1011.4
20260506170036 66 180 4.0 16.0 0.00 0.00 0.00 77 1011.1
20260506165534 66 189 6.0 11.0 0.00 0.00 0.00 78 1011.1
20260506165030 66 177 13.0 16.0 0.00 0.00 0.00 76 1011.0
20260506164527 66 228 9.0 14.0 0.00 0.00 0.00 78 1011.1
20260506164024 66 229 9.0 10.0 0.00 0.00 0.00 79 1011.5
20260506163520 66 146 10.0 16.0 0.00 0.00 0.00 76 1011.1
20260506163016 66 184 5.0 13.0 0.00 0.00 0.00 76 1011.2
20260506162512 66 176 8.0 16.0 0.00 0.00 0.00 77 1011.1
20260506162003 66 163 7.0 11.0 0.00 0.00 0.00 78 1011.0